Weather History for Morris, MN

Change the Weather History Date:

Wednesday, October 17, 2012

  Actual Average Record
Temperature  
Mean Temperature 50 °F -  
Max Temperature 57 °F 55 °F 69 °F (2003)
Min Temperature 44 °F 34 °F 28 °F (1999)
Degree Days  
Heating Degree Days 14    
Moisture  
Dew Point 45 °F    
Average Humidity 83    
Maximum Humidity 94    
Minimum Humidity 59    
Precipitation  
Precipitation 0.52 in - - ()
Sea Level Pressure  
Sea Level Pressure 29.22 in    
Wind  
Wind Speed 13 mph (WNW)    
Max Wind Speed 25 mph    
Max Gust Speed 33 mph    
Visibility 9 miles    
Events Rain    
Averages and records for this station are not official NWS values.
T = Trace of Precipitation, MM = Missing Value Source: NWS Daily Summary

Daily Weather History Graph

Daily Weather History Graph

Search for Another Location

Airport:

Trip Planner

Search our weather history database for the weather conditions in past years. The results will help you decide how hot, cold, wet, or windy it might be!

Date:

Astronomy

Oct. 17, 2012 Rise Set
Actual Time 7:43 AM CDT 6:33 PM CDT
Civil Twilight 7:13 AM CDT 7:03 PM CDT
Nautical Twilight 6:39 AM CDT 7:38 PM CDT
Astronomical Twilight 6:04 AM CDT 8:12 PM CDT
Moon 10:28 AM CDT (10/17) 8:01 PM CDT (10/17)
Length of Visible Light 11h 50m
Length of Day
10h 50m
Waxing Crescent, 7% of the Moon is Illuminated
Oct 17
Waxing Crescent
Oct 21
First Quarter
Oct 29
Full
Nov 6
Last Quarter
Nov 13
New

Hourly Weather History & Observations

Time (CDT) Temp. Windchill Dew Point Humidity Pressure Visibility Wind Dir Wind Speed Gust Speed Precip Events Conditions
12:10 AM 57.2 °F - 42.8 °F 59% 29.29 in 4.0 mi SE 8.1 mph - N/A   Haze
12:30 AM 55.4 °F - 42.8 °F 63% 29.28 in 4.0 mi ESE 6.9 mph - N/A   Haze
12:50 AM 55.4 °F - 42.8 °F 63% 29.28 in 7.0 mi SE 8.1 mph - N/A   Clear
1:10 AM 55.4 °F - 42.8 °F 63% 29.28 in 10.0 mi SE 8.1 mph - N/A   Scattered Clouds
1:50 AM 55.4 °F - 44.6 °F 67% 29.27 in 10.0 mi SE 6.9 mph - N/A   Scattered Clouds
2:10 AM 55.4 °F - 44.6 °F 67% 29.26 in 10.0 mi SSE 8.1 mph - N/A   Clear
2:30 AM 55.4 °F - 44.6 °F 67% 29.25 in 10.0 mi SSE 9.2 mph - N/A Rain Light Rain
2:50 AM 55.4 °F - 46.4 °F 72% 29.24 in 10.0 mi SSE 10.4 mph - N/A   Light Drizzle
3:10 AM 55.4 °F - 46.4 °F 72% 29.23 in 10.0 mi SE 9.2 mph - N/A   Overcast
3:50 AM 55.4 °F - 46.4 °F 72% 29.19 in 10.0 mi East 6.9 mph - N/A   Overcast
4:10 AM 55.4 °F - 46.4 °F 72% 29.20 in 10.0 mi Calm Calm - N/A   Overcast
4:30 AM 53.6 °F - 48.2 °F 82% 29.19 in 10.0 mi NE 4.6 mph - N/A Rain Light Rain
4:50 AM 53.6 °F - 48.2 °F 82% 29.18 in 10.0 mi NE 6.9 mph - N/A Rain Light Rain
5:10 AM 53.6 °F - 48.2 °F 82% 29.16 in 10.0 mi NNE 4.6 mph - N/A   Overcast
5:30 AM 53.6 °F - 48.2 °F 82% 29.16 in 10.0 mi NE 4.6 mph - N/A   Overcast
5:50 AM 53.6 °F - 48.2 °F 82% 29.15 in 10.0 mi NE 8.1 mph - N/A   Light Drizzle
6:10 AM 53.6 °F - 48.2 °F 82% 29.14 in 7.0 mi North 8.1 mph - 0.02 in Rain Light Rain
6:30 AM 53.6 °F - 48.2 °F 82% 29.14 in 10.0 mi North 15.0 mph - 0.02 in   Overcast
6:50 AM 53.6 °F - 50.0 °F 88% 29.14 in 10.0 mi North 13.8 mph - 0.05 in Rain Rain
7:10 AM 53.6 °F - 50.0 °F 88% 29.15 in 7.0 mi NW 13.8 mph - 0.01 in   Drizzle
7:30 AM 53.6 °F - 50.0 °F 88% 29.14 in 7.0 mi NNW 12.7 mph - 0.01 in   Light Drizzle
7:50 AM 53.6 °F - 51.8 °F 94% 29.14 in 7.0 mi NW 13.8 mph - 0.01 in   Overcast
8:10 AM 53.6 °F - 51.8 °F 94% 29.15 in 5.0 mi NW 18.4 mph - 0.12 in Rain Heavy Rain
8:30 AM 53.6 °F - 51.8 °F 94% 29.15 in 7.0 mi NW 15.0 mph - 0.26 in Rain Light Rain
8:50 AM 53.6 °F - 51.8 °F 94% 29.15 in 5.0 mi WNW 13.8 mph - 0.33 in Rain Light Rain
9:10 AM 51.8 °F - 50.0 °F 94% 29.16 in 7.0 mi NW 23.0 mph 31.1 mph 0.03 in Rain Light Rain
9:30 AM 51.8 °F - 48.2 °F 88% 29.16 in 5.0 mi WNW 21.9 mph 25.3 mph 0.05 in Rain Light Rain
9:50 AM 51.8 °F - 48.2 °F 88% 29.16 in 10.0 mi WNW 25.3 mph 31.1 mph 0.06 in Rain Light Rain
10:10 AM 50.0 °F - 48.2 °F 94% 29.16 in 5.0 mi WNW 24.2 mph 32.2 mph N/A Rain Light Rain
10:30 AM 50.0 °F - 46.4 °F 87% 29.17 in 5.0 mi WNW 25.3 mph 31.1 mph 0.01 in Rain Light Rain
10:50 AM 50.0 °F - 48.2 °F 94% 29.17 in 7.0 mi WNW 19.6 mph 25.3 mph 0.04 in Rain Light Rain
11:10 AM 51.8 °F - 48.2 °F 88% 29.16 in 10.0 mi WNW 20.7 mph 26.5 mph 0.01 in Rain Light Rain
11:30 AM 51.8 °F - 48.2 °F 88% 29.17 in 10.0 mi West 23.0 mph 28.8 mph 0.01 in   Mostly Cloudy
11:50 AM 50.0 °F - 44.6 °F 82% 29.17 in 10.0 mi WNW 24.2 mph 33.4 mph 0.01 in   Overcast
12:10 PM 51.8 °F - 46.4 °F 82% 29.18 in 10.0 mi WNW 24.2 mph 28.8 mph N/A   Mostly Cloudy
12:30 PM 51.8 °F - 46.4 °F 82% 29.19 in 10.0 mi WNW 20.7 mph 28.8 mph N/A   Mostly Cloudy
12:50 PM 51.8 °F - 46.4 °F 82% 29.20 in 10.0 mi West 23.0 mph 26.5 mph N/A   Scattered Clouds
1:10 PM 51.8 °F - 46.4 °F 82% 29.20 in 10.0 mi West 20.7 mph 28.8 mph N/A   Mostly Cloudy
1:30 PM 51.8 °F - 46.4 °F 82% 29.20 in 10.0 mi West 20.7 mph 25.3 mph N/A   Overcast
1:50 PM 53.6 °F - 46.4 °F 77% 29.19 in 10.0 mi WNW 17.3 mph 23.0 mph N/A   Overcast
2:10 PM 53.6 °F - 46.4 °F 77% 29.18 in 10.0 mi West 16.1 mph 20.7 mph N/A   Overcast
2:30 PM 53.6 °F - 48.2 °F 82% 29.19 in 10.0 mi West 23.0 mph 27.6 mph N/A   Overcast
2:50 PM 51.8 °F - 48.2 °F 88% 29.19 in 7.0 mi WNW 21.9 mph 28.8 mph N/A   Overcast
3:10 PM 51.8 °F - 46.4 °F 82% 29.20 in 10.0 mi WNW 24.2 mph 27.6 mph N/A   Overcast
3:30 PM 48.2 °F - 44.6 °F 87% 29.21 in 10.0 mi West 25.3 mph 29.9 mph N/A   Overcast
3:50 PM 48.2 °F - 44.6 °F 87% 29.23 in 10.0 mi WNW 19.6 mph 32.2 mph N/A   Overcast
4:10 PM 48.2 °F - 42.8 °F 82% 29.23 in 10.0 mi WNW 21.9 mph 32.2 mph N/A   Overcast
4:30 PM 48.2 °F - 42.8 °F 82% 29.24 in 10.0 mi West 21.9 mph 26.5 mph N/A   Overcast
4:50 PM 48.2 °F - 42.8 °F 82% 29.25 in 10.0 mi WNW 19.6 mph 27.6 mph N/A   Overcast
5:10 PM 46.4 °F 38.7 °F 42.8 °F 87% 29.25 in 10.0 mi WNW 20.7 mph 28.8 mph N/A   Overcast
5:30 PM 46.4 °F 38.5 °F 41.0 °F 81% 29.26 in 10.0 mi WNW 21.9 mph 32.2 mph N/A   Overcast
5:50 PM 44.6 °F 36.1 °F 42.8 °F 93% 29.26 in 5.0 mi WNW 21.9 mph 27.6 mph N/A   Overcast
6:10 PM 44.6 °F 36.6 °F 42.8 °F 93% 29.26 in 7.0 mi WNW 19.6 mph 28.8 mph N/A Rain Light Rain
6:30 PM 44.6 °F 36.1 °F 42.8 °F 93% 29.27 in 7.0 mi WNW 21.9 mph - N/A Rain Light Rain
6:50 PM 44.6 °F 36.6 °F 42.8 °F 93% 29.27 in 10.0 mi WNW 19.6 mph - N/A Rain Light Rain
7:10 PM 44.6 °F 36.6 °F 41.0 °F 87% 29.28 in 10.0 mi WNW 19.6 mph 26.5 mph 0.01 in Rain Light Rain
7:30 PM 44.6 °F 37.4 °F 41.0 °F 87% 29.28 in 10.0 mi WNW 16.1 mph - 0.01 in Rain Rain
7:50 PM 44.6 °F 36.9 °F 41.0 °F 87% 29.29 in 10.0 mi WNW 18.4 mph - 0.02 in Rain Rain
8:10 PM 44.6 °F 36.9 °F 41.0 °F 87% 29.29 in 10.0 mi WNW 18.4 mph 25.3 mph N/A   Overcast
8:30 PM 44.6 °F 37.2 °F 41.0 °F 87% 29.30 in 5.0 mi WNW 17.3 mph 21.9 mph N/A   Light Drizzle
8:50 PM 44.6 °F 36.9 °F 41.0 °F 87% 29.30 in 4.0 mi WNW 18.4 mph 24.2 mph N/A   Light Drizzle
9:10 PM 44.6 °F 37.2 °F 41.0 °F 87% 29.30 in 7.0 mi WNW 17.3 mph 25.3 mph N/A   Overcast
9:30 PM 44.6 °F 37.8 °F 41.0 °F 87% 29.30 in 10.0 mi WNW 15.0 mph 20.7 mph N/A   Overcast
9:50 PM 44.6 °F 37.2 °F 41.0 °F 87% 29.29 in 10.0 mi WNW 17.3 mph 21.9 mph N/A   Overcast
10:10 PM 44.6 °F 36.9 °F 41.0 °F 87% 29.29 in 10.0 mi WNW 18.4 mph 24.2 mph N/A   Overcast
10:30 PM 44.6 °F 37.4 °F 39.2 °F 81% 29.28 in 10.0 mi WNW 16.1 mph 24.2 mph N/A   Overcast
10:50 PM 44.6 °F 36.6 °F 39.2 °F 81% 29.27 in 10.0 mi WNW 19.6 mph 24.2 mph N/A   Overcast
11:10 PM 44.6 °F 37.4 °F 39.2 °F 81% 29.26 in 10.0 mi WNW 16.1 mph 21.9 mph N/A   Overcast
11:30 PM 44.6 °F 37.2 °F 39.2 °F 81% 29.26 in 10.0 mi West 17.3 mph - N/A   Overcast
11:50 PM 44.6 °F 36.9 °F 39.2 °F 81% 29.25 in 10.0 mi West 18.4 mph - N/A   Overcast